Find Starlink 2082

NORAD ID: 47367 Int'l Des: 2021-005 Owner: SPXS Country: US Constellation: starlink operational
LEOCIRCULARSTARLINK_TYPE

リアルタイム位置

3D地球を読み込み中...

Starlink 2082について

説明を読み込み中...

次回通過

Passes for default location (London). Set your location on the main map for personalized predictions.

高度履歴

Loading altitude history...

軌道要素

1 47367U 21005U 26122.85264275 .00002301 00000-0 85903-4 0 9992
2 47367 53.1594 170.8562 0001266 90.2985 269.8161 15.31698640291326
Epoch: May 2, 2026 • Age: 19 hours

現在のステータス

高度 476.4 km
速度 7.63 km/s
衛星直下点 -19.10°S, 63.48°E
打ち上げ日 Jan 20, 2021
運用期間 5.2 years
タイプ internet

技術仕様

分類 Payload
質量 260.00 kg
乾燥質量 248.00 kg
総質量 260.00 kg
長さ 0.20 m
直径 2.80 m
スパン 9.00 m
形状 Box + pan
製造者 SPXS
バスタイプ Starlink
フェーズステータス In Orbit
所有者/国 SPXS/US

Most Searched